Location: Łódź
(51.7951°N, 19.4477°E)
Time: 11:21:58
(UTC+01:00)

ISS - Visible Passes

Search period start: 24 January 2019 00:00
Search period end: 03 February 2019 00:00
Orbit: 404 x 410 km, 51.6° (Epoch: 24 January)

Date Brightness Start Highest point End Pass type
(mag) Time Alt. Az. Time Alt. Az. Time Alt. Az.
24 Jan -1.8 17:49:35 10° S 17:51:41 16° SE 17:52:04 16° SE visible
24 Jan -0.6 19:24:28 10° WSW 19:24:47 12° WSW 19:24:47 12° WSW visible
25 Jan -1.2 17:00:18 10° SE 17:00:34 10° SE 17:00:51 10° SE visible
25 Jan -2.6 18:33:18 10° SW 18:35:41 34° S 18:35:41 34° S visible
26 Jan -2.5 17:42:18 10° SSW 17:45:10 28° SSE 17:46:30 21° ESE visible
26 Jan -1.1 19:18:07 10° WSW 19:19:14 19° WSW 19:19:14 19° WSW visible
27 Jan -3.7 18:26:48 10° WSW 18:30:00 61° S 18:30:00 61° S visible
28 Jan -3.2 17:35:32 10° SW 17:38:43 46° SSE 17:40:43 20° E visible
28 Jan -1.6 19:11:49 10° W 19:13:26 26° W 19:13:26 26° W visible
29 Jan -3.9 18:20:24 10° WSW 18:23:43 82° S 18:24:07 66° E visible
30 Jan -3.7 17:29:01 10° WSW 17:32:19 69° SSE 17:34:47 16° E visible
30 Jan -2.1 19:05:31 10° W 19:07:30 33° W 19:07:30 33° W visible
31 Jan -3.9 18:14:04 10° W 18:17:23 90° W 18:18:09 50° E visible
31 Jan -0.3 19:50:36 10° W 19:50:52 12° W 19:50:52 12° W visible
01 Feb -3.8 17:22:36 10° W 17:25:55 86° S 17:28:49 13° E visible
01 Feb -2.6 18:59:08 10° W 19:01:32 43° W 19:01:32 43° W visible
02 Feb -3.9 18:07:40 10° W 18:10:59 83° S 18:12:12 36° ESE visible
02 Feb -0.6 19:44:17 10° W 19:44:55 14° W 19:44:55 14° W visible
